When you browse on this site, cookies collect data to enhance your experience and personalize the content and advertising you see.
Visit our Privacy Policy to learn more. By continuing to use the site, you agree to this use of cookies and data.
  • In Hungary
  • List of Countries
  • For 7 days
  • Water Temperature
  • Satellite Maps
  • Weather Map
  • News
  • Weather Widgets
  • user-avatar
    Login

    Hourly Weather Ko Khai

    Today, 21 February, Thursday

    Time Temperature Precipitation Wind Pressure Humidity
    00:00 +27°C° 0 mm 2 mps 756 mmHg 82%
    01:00 +26°C° 0 mm 2 mps 756 mmHg 86%
    02:00 +26°C° 0 mm 2 mps 756 mmHg 86%
    03:00 +26°C° 0 mm 2 mps 755 mmHg 86%
    04:00 +26°C° 0 mm 2 mps 755 mmHg 86%
    05:00 +26°C° 0 mm 2 mps 755 mmHg 86%
    06:00 +26°C° 0 mm 2 mps 756 mmHg 86%
    07:00 +26°C° 0 mm 2 mps 756 mmHg 85%
    08:00 +28°C° 0 mm 2 mps 756 mmHg 76%
    09:00 +30°C° 0 mm 3 mps 756 mmHg 66%
    10:00 +33°C° 0 mm 3 mps 757 mmHg 57%
    11:00 +34°C° 0 mm 3 mps 756 mmHg 54%
    12:00 +34°C° 0 mm 3 mps 756 mmHg 52%
    13:00 +34°C° 0 mm 3 mps 756 mmHg 51%
    14:00 +34°C° 0 mm 3 mps 755 mmHg 52%
    15:00 +34°C° 0 mm 3 mps 755 mmHg 52%
    16:00 +34°C° 0 mm 3 mps 754 mmHg 53%
    17:00 +31°C° 0 mm 3 mps 754 mmHg 59%
    18:00 +29°C° 0 mm 2 mps 755 mmHg 66%
    19:00 +28°C° 0 mm 2 mps 755 mmHg 72%
    20:00 +27°C° 0 mm 2 mps 755 mmHg 75%
    21:00 +27°C° 0 mm 2 mps 755 mmHg 78%
    22:00 +26°C° 0 mm 1 mps 756 mmHg 81%
    23:00 +26°C° 0 mm 1 mps 755 mmHg 83%

    Tomorrow, 22 February, Friday

    Time Temperature Precipitation Wind Pressure Humidity
    00:00 +26°C° 0 mm 1 mps 755 mmHg 85%
    01:00 +23°C° 0 mm 0 mps 755 mmHg 87%
    02:00 +23°C° 0 mm 0 mps 754 mmHg 88%
    03:00 +23°C° 0 mm 0 mps 754 mmHg 89%
    04:00 +23°C° 0 mm 0 mps 754 mmHg 90%
    05:00 +22°C° 0 mm 0 mps 754 mmHg 90%
    06:00 +24°C° 0 mm 1 mps 754 mmHg 91%
    07:00 +24°C° 0 mm 1 mps 754 mmHg 91%
    08:00 +27°C° 0 mm 1 mps 754 mmHg 80%
    09:00 +30°C° 0 mm 1 mps 755 mmHg 68%
    10:00 +32°C° 0 mm 1 mps 755 mmHg 57%
    11:00 +34°C° 0 mm 2 mps 755 mmHg 54%
    12:00 +35°C° 0 mm 3 mps 754 mmHg 52%
    13:00 +36°C° 0 mm 3 mps 754 mmHg 49%
    14:00 +35°C° 0 mm 3 mps 753 mmHg 51%
    15:00 +35°C° 0 mm 3 mps 752 mmHg 54%
    16:00 +34°C° 0 mm 3 mps 752 mmHg 56%
    17:00 +33°C° 0 mm 3 mps 752 mmHg 63%
    18:00 +30°C° 0 mm 2 mps 752 mmHg 71%
    19:00 +28°C° 0 mm 2 mps 752 mmHg 79%
    20:00 +28°C° 0 mm 2 mps 753 mmHg 81%
    21:00 +28°C° 0 mm 1 mps 754 mmHg 84%
    22:00 +27°C° 0 mm 1 mps 754 mmHg 86%
    23:00 +27°C° 0 mm 1 mps 754 mmHg 87%

    Day after tomorrow, 23 February, Saturday

    Time Temperature Precipitation Wind Pressure Humidity
    00:00 +27°C° 0 mm 1 mps 754 mmHg 89%
    01:00 +26°C° 0 mm 1 mps 754 mmHg 90%
    02:00 +26°C° 0 mm 1 mps 753 mmHg 91%
    03:00 +26°C° 0 mm 1 mps 753 mmHg 92%
    04:00 +26°C° 0 mm 1 mps 752 mmHg 92%
    05:00 +26°C° 0 mm 1 mps 753 mmHg 93%
    06:00 +26°C° 0 mm 1 mps 753 mmHg 93%
    07:00 +26°C° 0 mm 1 mps 753 mmHg 94%
    08:00 +28°C° 0 mm 1 mps 754 mmHg 82%
    09:00 +31°C° 0 mm 1 mps 754 mmHg 71%
    10:00 +34°C° 0 mm 2 mps 755 mmHg 59%
    11:00 +35°C° 0 mm 2 mps 754 mmHg 56%
    12:00 +36°C° 0 mm 3 mps 753 mmHg 53%
    13:00 +36°C° 0 mm 3 mps 753 mmHg 49%
    14:00 +36°C° 0 mm 4 mps 752 mmHg 52%
    15:00 +35°C° 0 mm 4 mps 751 mmHg 54%
    16:00 +35°C° 0 mm 4 mps 751 mmHg 56%
    17:00 +33°C° 0 mm 4 mps 751 mmHg 65%
    18:00 +30°C° 0 mm 4 mps 752 mmHg 73%
    19:00 +29°C° 0 mm 4 mps 752 mmHg 81%
    20:00 +28°C° 0 mm 3 mps 753 mmHg 84%
    21:00 +28°C° 0 mm 2 mps 753 mmHg 87%
    22:00 +27°C° 0 mm 2 mps 754 mmHg 90%
    23:00 +27°C° 0 mm 2 mps 754 mmHg 91%

    24 February, Sunday

    Time Temperature Precipitation Wind Pressure Humidity
    00:00 +27°C° 0 mm 1 mps 754 mmHg 92%
    01:00 +27°C° 0 mm 1 mps 753 mmHg 92%
    02:00 +27°C° 0.1 mm 1 mps 753 mmHg 93%
    03:00 +26°C° 0.1 mm 1 mps 753 mmHg 94%
    04:00 +26°C° 0.1 mm 1 mps 752 mmHg 95%
    05:00 +26°C° 0.2 mm 1 mps 753 mmHg 95%
    06:00 +26°C° 0.2 mm 1 mps 753 mmHg 95%
    07:00 +26°C° 0.2 mm 1 mps 753 mmHg 94%
    08:00 +28°C° 0.1 mm 2 mps 754 mmHg 84%
    09:00 +30°C° 0.1 mm 2 mps 754 mmHg 74%
    10:00 +32°C° 0.1 mm 2 mps 755 mmHg 63%
    11:00 +34°C° 0 mm 3 mps 754 mmHg 60%
    12:00 +35°C° 0 mm 3 mps 754 mmHg 57%
    13:00 +36°C° 0 mm 4 mps 753 mmHg 54%
    14:00 +35°C° 0.1 mm 4 mps 752 mmHg 56%
    15:00 +34°C° 0.1 mm 4 mps 752 mmHg 59%
    16:00 +34°C° 0.1 mm 4 mps 751 mmHg 61%
    17:00 +33°C° 0 mm 3 mps 751 mmHg 67%
    18:00 +30°C° 0 mm 3 mps 752 mmHg 72%
    19:00 +29°C° 0 mm 3 mps 752 mmHg 78%
    20:00 +28°C° 0 mm 2 mps 753 mmHg 80%
    21:00 +28°C° 0 mm 2 mps 754 mmHg 83%
    22:00 +27°C° 0 mm 1 mps 754 mmHg 85%
    23:00 +27°C° 0 mm 1 mps 754 mmHg 87%

    25 February, Monday

    Time Temperature Precipitation Wind Pressure Humidity
    00:00 +27°C° 0 mm 1 mps 754 mmHg 88%
    01:00 +27°C° 0 mm 1 mps 753 mmHg 90%
    02:00 +26°C° 0 mm 1 mps 753 mmHg 91%
    03:00 +26°C° 0 mm 1 mps 752 mmHg 92%
    04:00 +26°C° 0 mm 1 mps 752 mmHg 93%
    05:00 +26°C° 0 mm 1 mps 753 mmHg 94%
    06:00 +26°C° 0 mm 1 mps 753 mmHg 94%
    07:00 +26°C° 0 mm 1 mps 754 mmHg 94%
    08:00 +28°C° 0 mm 1 mps 754 mmHg 81%
    09:00 +31°C° 0 mm 1 mps 755 mmHg 69%
    10:00 +34°C° 0 mm 1 mps 755 mmHg 56%
    11:00 +35°C° 0 mm 2 mps 755 mmHg 54%
    12:00 +36°C° 0 mm 3 mps 754 mmHg 51%
    13:00 +36°C° 0 mm 3 mps 753 mmHg 48%
    14:00 +35°C° 0 mm 4 mps 753 mmHg 50%
    15:00 +35°C° 0 mm 4 mps 752 mmHg 52%
    16:00 +34°C° 0 mm 4 mps 751 mmHg 55%
    17:00 +33°C° 0 mm 3 mps 752 mmHg 62%
    18:00 +30°C° 0 mm 3 mps 752 mmHg 69%
    19:00 +29°C° 0 mm 3 mps 752 mmHg 76%
    20:00 +28°C° 0 mm 3 mps 753 mmHg 79%
    21:00 +28°C° 0 mm 3 mps 754 mmHg 82%
    22:00 +28°C° 0 mm 3 mps 754 mmHg 84%
    23:00 +27°C° 0 mm 3 mps 754 mmHg 86%

    26 February, Tuesday

    Time Temperature Precipitation Wind Pressure Humidity
    00:00 +27°C° 0 mm 3 mps 754 mmHg 87%
    01:00 +27°C° 0 mm 2 mps 753 mmHg 88%
    02:00 +27°C° 0 mm 2 mps 753 mmHg 89%
    03:00 +26°C° 0 mm 2 mps 753 mmHg 89%
    04:00 +26°C° 0 mm 2 mps 752 mmHg 90%
    05:00 +26°C° 0 mm 2 mps 753 mmHg 90%
    06:00 +26°C° 0 mm 2 mps 753 mmHg 89%
    07:00 +26°C° 0 mm 2 mps 754 mmHg 89%
    08:00 +28°C° 0.1 mm 2 mps 754 mmHg 81%
    09:00 +30°C° 0.1 mm 3 mps 755 mmHg 73%
    10:00 +32°C° 0.1 mm 4 mps 755 mmHg 65%
    11:00 +33°C° 0.1 mm 4 mps 755 mmHg 62%
    12:00 +34°C° 0.1 mm 4 mps 754 mmHg 58%
    13:00 +35°C° 0.1 mm 4 mps 753 mmHg 55%
    14:00 +35°C° 0 mm 4 mps 753 mmHg 56%
    15:00 +34°C° 0 mm 4 mps 753 mmHg 58%
    16:00 +34°C° 0 mm 4 mps 752 mmHg 59%
    17:00 +32°C° 0 mm 4 mps 753 mmHg 66%
    18:00 +30°C° 0 mm 4 mps 753 mmHg 72%
    19:00 +28°C° 0 mm 4 mps 753 mmHg 79%
    20:00 +28°C° 0 mm 3 mps 754 mmHg 80%
    21:00 +28°C° 0 mm 3 mps 754 mmHg 81%
    22:00 +28°C° 0 mm 3 mps 754 mmHg 82%
    23:00 +27°C° 0 mm 3 mps 754 mmHg 83%
    Show more